Regional Weather Roundup
Issued by NWS

Home | Current Version | Previous Version | Text Only | Print | Product List | Glossary On
Versions: 1 2 3 4 5 6 7 8 9 10 11 12 13 14 15 16 17 18 19 20 21 22 23 24 25 26 27 28 29 30 31 32 33 34 35 36 37 38 39 40 41 42 43 44 45 46 47 48 49 50
000
ASUS43 KLSX 291959
RWRMO

WEATHER SUMMARY FOR MISSOURI
NATIONAL WEATHER SERVICE SPRINGFIELD MO
300 PM CDT FRI AUG 29 2014

NOTE: "FAIR" INDICATES FEW OR NO CLOUDS BELOW 12,000 FEET WITH NO
       SIGNIFICANT WEATHER AND/OR OBSTRUCTIONS TO VISIBILITY.
       CURRENT SKY AND/OR WEATHER CONDITIONS ARE NOT AVAILABLE FOR
       CHILLICOTHE AND FARMINGTON.

MOZ001>031-035>038-043-044-053-054-292100-
...NORTHERN AND WESTERN MISSOURI...

CITY           SKY/WX    TMP DP  RH WIND       PRES   REMARKS
KANSAS CTY INT PTSUNNY   79  69  71 S12       29.83F
KANSAS C DTWN  MOSUNNY   81  69  67 SW9       29.82F
LEE`S SUMMIT   MOSUNNY   79  69  71 SW10      29.84F
ST JOSEPH      PTSUNNY   77  70  79 S7        29.81F
KIRKSVILLE     LGT RAIN  76  68  76 W12G22    29.85S

$$
MOZ066>068-077>081-088>096-101>105-292100-
...SOUTHWEST MISSOURI...

CITY           SKY/WX    TMP DP  RH WIND       PRES   REMARKS
SPRINGFIELD    PTSUNNY   85  66  53 SW10      29.87F
JOPLIN         PTSUNNY   87  62  43 SW17G23   29.88F

$$
MOZ032>034-039>042-045>050-055>058-069>072-292100-
...CENTRAL MISSOURI...

CITY           SKY/WX    TMP DP  RH WIND       PRES   REMARKS
COLUMBIA       TSTM      72  70  93 SW20G31   29.88R FOG
JEFFERSON CITY TSTM      75  70  84 W13G25    29.87R
ROLLA          MOSUNNY   92  61  35 S15G24    29.85F HX  92
SEDALIA        MOSUNNY   84  69  60 S12       29.87F
OSAGE BEACH    PTSUNNY   79  70  73 W8        29.87S THUNDER

$$
MOZ051-052-059>065-292100-
...EAST CENTRAL MISSOURI...

CITY           SKY/WX    TMP DP  RH WIND       PRES   REMARKS
ST LOUIS INTL  MOSUNNY   91  65  41 S9        29.87F HX  93
SPIRIT OF STL  MOSUNNY   89  67  47 SE9       29.85F HX  92
ST CHARLES     SUNNY     90  65  43 S9        29.85F HX  92

$$
MOZ072>076-082>087-097>100-106>115-292100-
...SOUTH CENTRAL AND SOUTHEAST MISSOURI...

CITY           SKY/WX    TMP DP  RH WIND       PRES   REMARKS
CAPE GIRARDEAU MOSUNNY   90  66  45 S12G20    29.91F HX  92
FARMINGTON     MOSUNNY   91  63  38 S13       29.92F HX  92
POPLAR BLUFF   MOSUNNY   88  65  46 S6        29.89F HX  90
WEST PLAINS    PTSUNNY   85  64  49 SW10      29.93F

$$



USA.gov is the U.S. government's official web portal to all federal, state and local government web resources and services.